SCP
0 0 0 0 0 1 1 1 1 1 1 1 0 0 0 0 0 0 0 0 0 0 0 0 0 0 0 0 0 0 0 0 0 0 0 0 0 0 0 0 0 0 0
0 0 0 0 0 1 1 1 1 1 1 1 1 0 0 0 0 0 0 0 0 0 0 0 0 0 0 0 0 0 0 0 0 0 0 0 0 0 0 0 0 0 0
0 0 0 0 0 1 1 1 1 1 1 1 1 0 0 0 0 0 0 0 0 0 0 0 0 0 0 0 0 0 0 0 0 0 0 0 0 0 0 0 0 0 0
1 0 0 0 0 1 1 1 1 1 1 1 1 0 0 0 0 0 0 0 0 0 0 0 0 0 0 0 0 0 0 0 0 0 0 0 0 0 0 0 0 0 0
1 0 0 1 0 1 1 1 1 1 1 1 1 1 0 0 0 0 0 0 0 0 0 0 0 0 0 0 0 0 0 0 0 0 0 0 0 0 0 0 0 0 0
1 1 1 1 1 1 1 1 1 1 1 1 1 1 1 1 1 1 0 0 0 0 0 0 0 0 0 0 0 0 0 0 0 0 0 0 0 0 0 0 0 0 0
1 1 1 1 1 1 1 1 1 1 1 1 1 1 1 1 1 1 0 0 0 0 0 0 0 0 0 0 0 0 0 0 0 0 0 0 0 0 0 0 0 0 0
1 1 1 1 1 1 1 1 1 1 1 1 1 1 1 1 0 0 0 0 0 0 0 0 0 0 0 0 0 0 0 0 0 0 0 0 0 0 0 0 0 0 0
1 1 1 1 1 1 1 1 1 1 1 1 1 1 0 0 0 0 0 0 0 0 0 0 0 0 0 0 0 0 0 0 0 0 0 0 0 0 0 0 0 0 0
1 1 1 1 1 1 1 1 1 1 1 1 1 1 0 0 0 0 0 0 0 0 0 0 0 0 0 0 0 0 0 0 0 0 0 0 0 0 0 0 0 0 0
1 1 1 1 1 1 1 1 1 1 1 1 1 1 1 0 0 0 0 0 0 0 0 0 0 0 0 0 0 0 0 0 0 0 0 0 0 0 0 0 0 0 0
1 1 1 1 1 1 1 1 1 1 1 1 1 1 1 1 0 0 0 0 0 0 0 0 0 0 0 0 0 0 0 0 0 0 0 0 0 0 0 0 0 0 0
1 1 1 1 1 2 2 2 1 1 1 1 1 1 1 1 1 1 1 1 1 1 0 0 0 0 0 0 0 0 0 0 0 0 0 0 0 0 0 0 0 0 0
1 1 1 2 2 2 2 2 1 1 1 1 1 1 1 1 1 1 1 1 1 1 1 1 0 0 0 0 0 0 0 0 0 0 0 0 0 0 0 0 0 0 0
1 1 2 2 2 2 2 2 2 1 1 1 1 1 1 1 1 1 1 1 1 1 1 1 1 0 0 0 0 0 0 0 0 0 0 0 0 0 0 0 0 0 0
1 2 2 1 2 2 2 2 2 1 1 1 1 1 1 1 1 1 1 1 1 1 1 1 1 1 0 0 0 0 0 0 0 0 0 0 0 0 0 0 0 0 0
2 2 2 1 1 2 2 2 1 1 1 1 1 1 1 1 1 1 1 1 1 1 1 1 1 1 0 0 0 0 0 0 0 0 0 0 0 0 0 0 0 0 0
2 2 2 1 1 1 1 1 1 1 1 1 1 1 1 1 1 1 1 1 1 1 1 1 1 1 0 0 0 0 0 0 0 0 0 0 0 0 0 0 0 0 0
2 2 2 1 1 1 1 1 1 1 1 1 1 1 1 1 1 1 1 1 1 1 1 1 1 1 0 0 0 0 0 0 0 0 0 0 0 0 0 0 0 0 0
1 1 1 1 1 1 1 1 1 1 1 1 1 1 1 1 1 1 1 1 1 1 1 1 1 1 0 0 0 0 0 0 0 0 0 0 0 0 0 0 0 0 0
1 1 1 1 2 2 2 2 2 1 1 1 1 1 1 1 1 1 2 1 1 1 1 1 1 1 0 0 0 0 0 0 0 0 0 0 0 0 0 0 0 0 0
1 1 1 2 2 2 2 2 2 2 2 2 2 1 1 1 1 1 2 1 1 1 1 1 1 0 0 0 0 0 0 0 0 0 0 0 0 0 0 0 0 0 0
1 1 1 2 2 2 2 2 2 2 2 2 2 2 1 1 1 1 1 1 1 1 1 0 0 0 0 0 0 0 0 0 0 0 0 0 0 0 0 0 0 0 0
1 1 1 1 1 2 2 2 2 2 2 2 2 1 1 1 1 1 1 1 1 0 0 0 0 0 0 0 0 0 0 0 0 0 0 0 0 0 0 0 0 0 0
1 1 1 1 1 1 2 2 2 2 2 1 1 1 1 1 1 1 0 0 0 0 0 0 0 0 0 0 0 0 0 0 0 0 0 0 0 0 0 0 0 0 0
1 1 1 1 1 1 2 2 2 2 1 1 1 1 1 1 1 0 0 0 0 0 0 0 0 0 0 0 0 0 0 0 0 0 0 0 0 0 0 0 0 0 0
Wind_Speed
10 10 9 9 9 8 7 5 4 4 2 2 1 2 2 2 2 3 4 4 4 4 3 3 3 3 3 2 2 2 2 1 2 2 2 1 2 2 2 1 1 2 3
11 10 9 9 9 8 7 5 4 4 3 2 1 1 2 2 3 3 4 4 4 3 3 4 2 3 2 2 2 1 1 1 1 1 1 1 1 1 1 1 1 2 2
11 11 9 8 9 8 7 5 5 4 3 2 1 2 2 2 3 3 3 3 3 3 3 3 3 2 2 2 2 2 2 1 1 0 0 1 1 1 1 1 1 1 1
12 12 11 9 8 8 8 7 6 4 3 2 2 2 3 2 2 2 2 2 3 3 3 3 3 2 2 2 2 2 2 1 1 1 0 0 1 1 0 1 1 1 1
11 11 12 10 9 9 9 8 6 4 3 2 2 2 2 2 2 2 3 2 3 3 3 3 2 2 2 2 3 3 2 2 2 1 1 1 0 1 1 1 0 0 0
10 10 11 10 9 9 9 9 7 5 3 3 3 2 3 2 3 3 2 2 2 3 3 3 2 2 2 2 2 2 2 2 3 2 2 1 1 1 0 1 1 1 0
10 10 10 10 8 8 9 9 8 5 4 3 3 2 2 2 2 2 2 2 1 2 2 3 2 2 2 1 2 2 2 2 2 2 2 2 1 1 0 1 1 0 1
10 10 10 10 9 9 9 9 8 6 5 4 3 2 2 1 1 1 1 2 1 2 3 2 2 2 2 2 2 2 1 1 2 2 2 2 2 1 1 0 1 0 0
10 11 11 11 10 10 9 9 8 6 5 4 4 3 2 1 2 2 2 2 2 2 3 2 2 1 1 2 2 2 2 2 2 2 2 2 2 2 2 1 0 1 1
8 10 10 11 10 10 9 9 8 6 5 4 3 3 2 2 2 2 2 2 2 3 2 2 1 1 1 1 1 2 2 2 2 2 2 2 3 2 2 2 2 1 0
5 7 9 8 10 10 10 9 8 7 5 5 4 3 3 2 2 2 2 2 2 2 1 1 1 1 1 1 1 2 1 2 2 3 2 2 3 3 2 2 2 2 1
7 7 8 8 8 9 9 8 8 7 6 5 5 4 3 3 3 2 2 1 1 1 1 1 1 1 1 1 1 2 2 2 2 2 3 3 2 3 3 2 2 2 1
7 6 7 7 7 7 7 7 7 6 6 6 5 4 3 3 3 2 2 1 1 1 0 1 1 2 2 1 1 2 2 1 2 2 2 2 3 3 3 3 2 2 2
6 6 6 6 6 7 6 6 5 5 5 6 5 5 4 3 2 2 2 1 1 1 0 1 1 1 2 2 2 2 2 1 1 2 1 1 2 2 2 2 2 2 2
5 6 6 6 5 6 6 6 5 4 4 4 4 4 3 3 3 2 1 1 1 1 1 0 1 1 1 2 2 2 2 1 1 1 1 1 1 1 2 2 2 3 2
4 5 6 6 5 5 5 5 4 4 4 4 3 3 3 2 2 2 2 1 1 0 0 0 1 1 2 5 5 3 2 1 1 2 2 1 1 2 1 1 2 2 2
4 5 5 5 5 6 5 5 4 4 4 3 3 3 2 2 2 1 1 1 1 1 0 1 1 2 3 5 5 5 3 2 1 1 2 2 2 2 2 2 2 2 2
4 4 4 4 5 5 5 5 5 4 4 3 2 2 2 2 1 1 1 0 1 0 1 1 1 2 2 4 5 6 3 2 2 1 1 0 1 2 2 2 2 2 2
5 4 3 3 4 5 5 5 4 4 4 3 2 1 1 1 1 1 1 1 1 1 1 1 1 2 1 4 5 6 3 1 2 1 1 1 0 1 3 2 2 3 3
5 4 3 4 4 4 5 4 4 4 3 2 2 1 1 1 1 1 1 0 0 1 1 1 1 1 1 2 4 5 2 2 2 0 1 2 2 2 1 1 2 3 4
6 4 3 4 5 4 4 3 3 3 3 2 2 1 1 1 1 1 1 1 1 1 1 1 1 1 1 1 2 3 2 2 2 2 1 1 2 2 3 3 3 4 5
5 4 3 4 4 4 4 3 3 2 2 2 2 1 1 0 1 1 1 1 1 1 1 1 1 1 1 1 0 1 1 3 2 2 2 1 3 4 5 4 5 6 6
5 4 3 4 4 4 3 3 3 2 2 1 1 1 1 1 1 1 1 1 1 1 1 1 1 1 1 1 1 1 2 3 2 3 4 6 6 5 4 5 5 4 4
4 4 4 4 4 3 3 3 2 2 1 1 1 1 1 1 1 0 0 0 0 1 1 1 1 1 1 2 1 1 1 2 2 2 4 6 7 5 4 3 3 3 3
4 4 2 3 3 3 2 2 2 2 1 0 1 1 1 1 2 1 1 1 2 1 0 1 2 2 2 2 2 2 3 3 3 3 3 3 2 2 2 2 2 2 2
4 3 2 2 3 3 3 3 2 2 1 0 1 1 1 1 1 2 2 4 1 2 2 1 1 0 1 1 2 4 5 5 4 2 2 2 2 2 2 3 3 3 2
Wind_Direction
143 141 143 140 133 125 118 116 113 105 101 83 83 81 79 85 86 91 81 69 60 55 46 50 46 45 58 65 57 43 43 38 59 75 76 85 106 114 116 112 108 130 138
143 145 151 146 136 130 131 134 123 111 99 95 101 116 107 98 93 76 84 72 67 61 60 52 47 47 48 43 44 42 26 27 49 68 89 69 54 45 110 128 143 131 127
153 152 150 147 144 141 139 127 110 107 103 98 95 87 97 76 81 83 79 67 67 68 59 50 46 40 45 40 36 22 24 9 0 53 73 108 116 47 35 54 82 77 115
154 154 153 151 146 143 136 122 114 104 97 95 94 108 101 92 84 87 93 90 84 82 76 66 51 36 39 39 7 36 354 340 315 300 325 104 121 138 133 346 63 100 136
150 152 151 149 149 148 137 129 119 113 107 104 88 89 91 94 88 91 91 90 89 83 68 63 51 51 47 30 23 16 2 350 345 343 353 1 280 227 163 190 193 358 292
143 144 142 143 146 143 137 131 124 121 118 110 99 95 89 91 110 114 118 108 99 91 75 71 43 39 33 23 15 4 359 358 353 350 345 335 321 297 178 196 183 167 233
142 143 140 147 144 141 136 130 130 133 133 126 114 115 124 121 115 121 119 104 92 88 76 67 52 43 28 20 12 357 348 357 350 340 335 339 320 305 296 135 189 204 219
147 144 142 143 145 142 136 136 138 141 142 137 127 127 138 113 99 91 88 88 70 83 94 83 65 47 16 15 4 341 339 4 333 330 341 324 322 331 339 202 172 208 250
148 147 148 150 149 144 141 141 139 143 146 140 136 126 115 92 94 90 68 69 72 89 91 80 63 43 24 20 3 349 355 348 329 329 337 325 323 340 338 332 311 197 230
143 145 147 150 151 148 141 137 137 140 139 140 146 136 125 101 91 85 84 65 51 54 79 74 51 26 7 4 348 341 344 347 341 330 12 354 330 345 346 341 328 311 257
145 139 137 141 146 146 144 142 141 143 147 148 137 119 126 123 120 99 86 84 64 51 53 41 30 27 3 5 353 327 354 350 339 342 11 356 354 356 348 352 352 352 8
141 134 134 139 142 146 145 144 147 152 153 143 133 131 138 140 129 121 114 112 111 86 55 18 1 341 20 22 359 334 360 352 350 356 1 358 354 356 347 353 358 353 337
122 119 124 128 133 129 127 138 148 154 150 142 139 142 149 144 139 136 139 139 133 121 79 36 4 345 1 14 1 345 343 353 359 350 355 3 0 350 352 353 347 336 333
118 116 110 108 110 115 121 130 140 150 148 143 146 148 154 150 148 151 154 144 143 134 66 20 346 350 9 1 352 346 334 358 357 351 2 6 15 349 334 336 341 337 342
114 112 114 113 115 117 123 128 132 130 131 140 146 144 147 151 152 156 154 148 153 151 124 37 343 341 12 357 357 340 340 350 346 343 343 4 40 36 1 356 352 346 338
116 112 108 116 131 134 132 131 133 133 130 131 133 134 142 142 148 159 163 154 158 125 147 63 39 14 20 14 9 1 337 321 323 327 323 331 38 29 26 11 331 314 309
94 108 122 137 147 138 132 138 140 137 132 129 135 146 152 162 169 184 149 164 182 180 147 93 84 69 32 14 4 354 325 309 317 320 311 313 357 36 5 336 339 339 307
105 100 112 121 134 143 148 146 147 138 130 131 139 144 159 163 161 146 131 138 126 135 141 124 104 92 32 11 354 337 305 292 283 283 290 318 8 7 346 317 325 316 314
95 99 110 116 129 142 141 143 142 136 132 134 135 145 146 146 166 166 167 170 144 111 126 112 96 98 36 8 358 344 289 292 303 290 355 3 66 18 346 313 300 295 290
57 68 77 102 112 115 128 134 134 129 131 128 115 112 134 156 171 174 158 115 152 144 149 110 87 91 69 14 1 347 311 318 309 306 87 56 44 23 351 296 290 285 292
69 65 71 78 83 84 93 114 123 126 124 116 113 105 100 142 154 136 129 157 175 139 128 126 139 125 117 73 22 13 343 328 316 309 316 84 19 342 301 276 261 264 282
77 71 68 79 81 84 87 89 85 90 104 115 122 132 128 219 135 129 142 153 164 183 190 197 204 167 156 140 98 10 339 337 327 322 337 353 333 312 297 282 266 270 278
72 68 77 90 86 84 88 84 71 78 92 107 125 154 153 124 103 155 164 167 187 220 221 217 220 176 145 143 175 236 299 314 306 319 331 320 307 301 287 275 272 267 260
62 64 88 91 83 75 77 78 81 84 116 136 141 156 142 137 119 100 162 224 259 281 301 303 319 67 63 48 30 342 298 302 298 307 312 302 283 277 278 286 282 254 258
71 62 70 95 97 86 80 77 78 87 85 151 181 178 148 133 115 90 41 23 28 54 24 345 357 1 2 17 6 352 338 334 339 321 298 297 296 299 291 282 278 277 282
81 80 64 82 103 99 85 71 67 76 74 332 245 210 143 134 154 133 82 51 76 99 113 145 195 256 281 266 295 300 298 297 300 301 283 290 296 302 308 303 291 286 293